PE2_FLT1 (TYVAK-0261)

导读

PE2_FLT1(TYVAK-0261)是美国Tyvak International公司开发的微型卫星,于2024年3月4日发射入轨。作为商业拼车发射任务的搭载载荷,该卫星属于立方星系列,延续了Tyvak在小型航天器领域的技术路线,主要面向物联网连接与矿产勘探领域的测试应用,依托低轨星座架构开展空间技术验证,服务商业航天领域的多场景应用需求。

基本信息
目录编号:
59105
目录名称:
PE2_FLT1 (TYVAK-0261)
国际标识:
2024-043H
轨道中心:
EARTH
卫星名称:
PE2_FLT1 (TYVAK-0261)
卫星全名:
--
卫星状态:
在轨 (已飞行915 天)
发射日期:
2024-03-04 UTC
国别 :
美国 (US)
星等 :
--
轨道信息
数据来源 国际轨道数据
星历时间: 2026-09-05T04:13:56+0800
9小时前
查看轨道信息
半长轴: 6952.697km
偏心率: 0.0007415
轨道倾角: 97.848°
近地点辐角 126.586°
升交点赤经 18.760°
平近点角 233.604°
近地点: 569.404km
远地点: 579.716km
周期: 96.159分钟
每日圈数: 14.975208
详细信息
使用方式:
暂无
2D轨道图
3D轨道图
轨道高度分析图
轨道倾角分析图
轨道综合分析图
查看轨道综合分析图
交会数据列表
事件ID 空间交会对象 最接近时刻(TCA) 交会距离 交会风险概率(CRP) 交会风险指数(CRI) 操作
CDM_260905-142104-471205-910522
2026-09-05T
14:21:01+0000
2.405 km
极远距离
1.812091E-6 低风险 0.4
CDM_260906-235105-529005-910521
2026-09-06T
23:51:44+0000
2.894 km
极远距离
1.197256E-6 低风险 0.37
CDM_260906-092405-542005-910521
2026-09-06T
09:24:48+0000
2.877 km
极远距离
1.081074E-6 低风险 0.36